Home   Weather   Helsinki   Past weeks
Flag for Finland

Past Weather in Helsinki, Finland — January 2019

Now
75 °F

Sunny.


Feels Like: 78 °F
Forecast: 60 / 50 °F
Wind: 3 mph from North

Location: Helsinki-Vantaa

Current Time: May 21, 2019 at 1:51:56 pm

Latest Report: May 21, 2019 at 1:20 pm


Visibility: 10 mi

Pressure: 29.92 "Hg

Humidity: 44%

Dew Point: 52 °F

Location of HelsinkiLocation

January 2019 Weather in Helsinki — Graph

°F

High & Low Weather Summary for January 2019

 TemperatureHumidityPressure
High37 °F (Jan 1, 7:50 am)100% (Jan 1, 12:20 am)30.33 "Hg (Jan 1, 12:20 am)
Low-18 °F (Jan 22, 5:50 am)63% (Jan 2, 5:50 pm)28.62 "Hg (Jan 14, 7:20 am)
Average21 °F91%29.62 "Hg
* Reported Jan 1 12:20 am — Jan 31 11:50 pm, Helsinki. Weather by CustomWeather, © 2019

Note: Actual official high and low records may vary slightly from our data, if they occured in-between our weather recording intervals... More about our weather records

Advertising

Helsinki Weather History for January 1, 2019

Scroll right to see more
 ConditionsComfort  
Time TempWeatherWind HumidityBarometerVisibility
12:20 am
Tue, Jan 1
32 °FSnow. Dense fog.22 mph100%29.62 "Hg1 mi
12:50 am32 °FLight snow. Passing clouds.22 mph100%29.59 "Hg1 mi
1:20 am32 °FLight snow. Passing clouds.20 mph100%29.56 "Hg2 mi
1:50 am32 °FLight snow. Passing clouds.21 mph100%29.53 "Hg2 mi
2:20 am34 °FLight rain. Passing clouds.22 mph93%29.50 "Hg2 mi
2:50 am34 °FLight rain. Passing clouds.22 mph100%29.47 "Hg3 mi
3:20 am34 °FPassing clouds.22 mph100%29.45 "Hg3 mi
3:50 am36 °FPassing clouds.20 mph93%29.42 "Hg2 mi
4:20 am36 °FPassing clouds.20 mph93%29.39 "Hg2 mi
4:50 am36 °FPassing clouds.15 mph100%29.36 "Hg3 mi
5:20 am36 °FPassing clouds.18 mph100%29.30 "Hg2 mi
5:50 am36 °FPassing clouds.21 mph100%29.27 "Hg2 mi
6:20 am36 °FPassing clouds.18 mph100%29.24 "Hg2 mi
6:50 am36 °FSprinkles. Passing clouds.18 mph100%29.21 "Hg2 mi
7:20 am36 °FPassing clouds.21 mph100%29.18 "Hg2 mi
7:50 am37 °FPassing clouds.17 mph93%29.15 "Hg2 mi
8:20 am37 °FPassing clouds.16 mph93%29.15 "Hg2 mi
8:50 am37 °FPassing clouds.13 mph100%29.12 "Hg2 mi
9:20 am37 °FPassing clouds.15 mph93%29.09 "Hg1 mi
9:50 am37 °FDrizzle. Partly sunny.16 mph93%29.06 "Hg1 mi
10:20 am37 °FDrizzle. Partly sunny.15 mph93%29.03 "Hg1 mi
10:50 am37 °FDrizzle. Partly sunny.14 mph100%29.03 "Hg1 mi
11:20 am37 °FDrizzle. Partly sunny.14 mph100%29.00 "Hg1 mi
11:50 am37 °FDrizzle. Fog.13 mph100%28.97 "Hg2 mi
12:20 pm37 °FDrizzle. Fog.13 mph100%28.94 "Hg2 mi
12:50 pm37 °FDrizzle. Fog.9 mph100%28.94 "Hg1 mi
1:20 pm37 °FScattered showers. Fog.10 mph100%28.94 "Hg1 mi
1:50 pm37 °FFog.9 mph100%28.94 "Hg1 mi
2:20 pm37 °FDrizzle. Broken clouds.13 mph100%28.91 "HgN/A
2:50 pm37 °FPartly sunny.14 mph100%28.91 "HgN/A
3:20 pm37 °FLight rain. Broken clouds.12 mph100%28.91 "Hg4 mi
3:50 pm37 °FPassing clouds.12 mph93%28.91 "Hg4 mi
4:20 pm36 °FPassing clouds.10 mph100%28.91 "HgN/A
4:50 pm36 °FPassing clouds.9 mph100%28.91 "HgN/A
5:20 pm36 °FPassing clouds.7 mph100%28.94 "HgN/A
5:50 pm36 °FPassing clouds.8 mph100%28.94 "HgN/A
6:20 pm36 °FPartly cloudy.8 mph93%28.94 "HgN/A
6:50 pm36 °FPassing clouds.8 mph93%28.94 "HgN/A
7:20 pm36 °FPassing clouds.6 mph93%28.94 "HgN/A
7:50 pm34 °FPassing clouds.3 mph100%28.94 "HgN/A
8:20 pm34 °FPassing clouds.5 mph100%28.94 "HgN/A
8:50 pm34 °FPassing clouds.3 mph100%28.94 "Hg4 mi
9:20 pm34 °FDrizzle. Fog.2 mph100%28.97 "Hg2 mi
9:50 pm34 °FDrizzle. Fog.1 mph100%28.97 "Hg2 mi
10:20 pm34 °FDrizzle. Fog.3 mph100%28.97 "Hg2 mi
10:50 pm34 °FDrizzle. Fog.3 mph100%29.00 "Hg2 mi
11:20 pm34 °FPartly cloudy.5 mph100%29.00 "Hg3 mi
11:50 pm34 °FPassing clouds.8 mph100%29.03 "Hg5 mi
Weather by CustomWeather, © 2019

See weather overview